Location: Church of God
(46.7283°N, 116.9983°W)
Time: 00:42:53
(UTC+00:00)

Cosmos 2026 Rocket - Pass Details

Date: 13 December 2025
Orbit: 937 x 1000 km, 82.9° (Epoch: 17 April)

Event Time Altitude Azimuth Distance (km) Brightness Sun altitude
Rises 13:34:30 0° 211° (SSW) 3,585 6.8 -18.0°
Reaches altitude 10° 13:37:08 10° 219° (SW) 2,648 6.1 -17.5°
Maximum altitude 13:42:45 39° 287° (WNW) 1,376 4.3 -16.6°
Drops below altitude 10° 13:48:28 10° 356° (N) 2,689 6.1 -15.7°
Sets 13:51:11 0° 4° (N) 3,648 6.9 -15.2°
